Tracking 18851 objects as of 25-Nov-2017
HD Live streaming from Space Station
objects crossing your sky now

FENGYUN 1C DEB

Track FENGYUN 1C DEB now!
10-day predictions


NORAD ID: 33681
Int'l Code: 1999-025DFS
Perigee: 836.1 km
Apogee: 987.7 km
Inclination: 99.3 °
Period: 103.1 minutes
Semi major axis: 7282 km
RCS: 0.0042 m2 (small)
Launch date: May 10, 1999
Source: People's Republic of China (PRC)
Launch site: Taiyaun Space Center, China (TSC)

Note: This is SATELLITE DEBRIS
aabbcc
Your satellite tracking list
Your tracking list is empty




NASA's NSSDC Master Catalog

Two Line Element Set (TLE):
1 33681U 99025DFS 17319.97734256 -.00000024  00000-0  15195-4 0  9992
2 33681  99.3194 321.1838 0104075 187.0192 203.2854 13.96848230491124
Source of the keplerian elements: AFSPC